"Sample Date","Sample Time","Sensor Name","Sample Value","Units","Flow Rate","Sample Interval","Sample Volume","Laser Status","Number Channels","Micron Size 0","Counts/Channel 0","Micron Size 1","Counts/Channel 1","Micron Size 2","Counts/Channel 2","Micron Size 3","Counts/Channel 3","Micron Size 4","Counts/Channel 4","Micron Size 5","Counts/Channel 5","Micron Size 6","Counts/Channel 6","Micron Size 7","Counts/Channel 7","Micron Size 8","Counts/Channel 8","Micron Size 9","Counts/Channel 9","Micron Size 10","Counts/Channel 10","Micron Size 11","Counts/Channel 11","Micron Size 12","Counts/Channel 12","Micron Size 13","Counts/Channel 13","Micron Size 14","Counts/Channel 14","Micron Size 15","Counts/Channel 15","Micron Size 16","Counts/Channel 16","Micron Size 17","Counts/Channel 17","Micron Size 18","Counts/Channel 18","Micron Size 19","Counts/Channel 19","Micron Size 20","Counts/Channel 20","Micron Size 21","Counts/Channel 21","Micron Size 22","Counts/Channel 22","Micron Size 23","Counts/Channel 23","Micron Size 24","Counts/Channel 24","Micron Size 25","Counts/Channel 25","Micron Size 26","Counts/Channel 26","Micron Size 27","Counts/Channel 27","Micron Size 28","Counts/Channel 28","Micron Size 29","Counts/Channel 29","Micron Size 30","Counts/Channel 30","Micron Size 31","Counts/Channel 31"
"07/02/06","14:00:02","AMMA06",67967.000,"cc",28324.209,6.00,2832.421,1,6,0.100,38459.000,0.200,23490.000,0.300,3703.000,0.500,1432.000,1.000,883.000,5.000,0
"07/02/06","14:00:08","AMMA06",67930.000,"cc",28337.660,6.00,2833.766,1,6,0.100,38283.000,0.200,23729.000,0.300,3623.000,0.500,1437.000,1.000,858.000,5.000,0
"07/02/06","14:00:14","AMMA06",68378.000,"cc",28272.721,6.00,2827.272,1,6,0.100,38484.000,0.200,23977.000,0.300,3626.000,0.500,1383.000,1.000,906.000,5.000,2.000
"07/02/06","14:00:20","AMMA06",67804.000,"cc",28279.832,6.00,2827.983,1,6,0.100,38278.000,0.200,23551.000,0.300,3625.000,0.500,1472.000,1.000,878.000,5.000,0
"07/02/06","14:00:26","AMMA06",68065.000,"cc",28350.404,6.00,2835.041,1,6,0.100,38552.000,0.200,23493.000,0.300,3720.000,0.500,1388.000,1.000,912.000,5.000,0
"07/02/06","14:00:32","AMMA06",67839.000,"cc",28320.385,6.00,2832.039,1,6,0.100,38245.000,0.200,23650.000,0.300,3630.000,0.500,1450.000,1.000,864.000,5.000,0
"07/02/06","14:00:38","AMMA06",67837.000,"cc",28331.781,6.00,2833.178,1,6,0.100,38182.000,0.200,23582.000,0.300,3760.000,0.500,1394.000,1.000,919.000,5.000,0
"07/02/06","14:00:44","AMMA06",68054.000,"cc",28307.953,6.00,2830.795,1,6,0.100,38508.000,0.200,23586.000,0.300,3671.000,0.500,1416.000,1.000,873.000,5.000,0
"07/02/06","14:00:50","AMMA06",67828.000,"cc",28359.850,6.00,2835.985,1,6,0.100,38472.000,0.200,23446.000,0.300,3663.000,0.500,1383.000,1.000,864.000,5.000,0
"07/02/06","14:00:56","AMMA06",67830.000,"cc",28374.637,6.00,2837.464,1,6,0.100,38447.000,0.200,23419.000,0.300,3696.000,0.500,1394.000,1.000,874.000,5.000,0
"07/02/06","14:01:02","AMMA06",68420.000,"cc",28253.656,6.00,2825.366,1,6,0.100,38487.000,0.200,23781.000,0.300,3749.000,0.500,1501.000,1.000,902.000,5.000,0
"07/02/06","14:01:08","AMMA06",67747.000,"cc",28266.352,6.00,2826.635,1,6,0.100,38251.000,0.200,23418.000,0.300,3767.000,0.500,1410.000,1.000,901.000,5.000,0
"07/02/06","14:01:14","AMMA06",67992.000,"cc",28313.574,6.00,2831.358,1,6,0.100,37976.000,0.200,23887.000,0.300,3882.000,0.500,1378.000,1.000,867.000,5.000,2.000
"07/02/06","14:01:20","AMMA06",67660.000,"cc",28309.264,6.00,2830.927,1,6,0.100,37953.000,0.200,23679.000,0.300,3748.000,0.500,1404.000,1.000,876.000,5.000,0
"07/02/06","14:01:26","AMMA06",67795.000,"cc",28304.150,6.00,2830.415,1,6,0.100,38363.000,0.200,23388.000,0.300,3735.000,0.500,1370.000,1.000,939.000,5.000,0
"07/02/06","14:01:32","AMMA06",67990.000,"cc",28324.301,6.00,2832.430,1,6,0.100,38073.000,0.200,23691.000,0.300,3916.000,0.500,1383.000,1.000,927.000,5.000,0
"07/02/06","14:01:38","AMMA06",68333.000,"cc",28306.703,6.00,2830.670,1,6,0.100,38622.000,0.200,23569.000,0.300,3749.000,0.500,1473.000,1.000,917.000,5.000,3.000
"07/02/06","14:01:44","AMMA06",68071.000,"cc",28319.715,6.00,2831.972,1,6,0.100,38255.000,0.200,23820.000,0.300,3670.000,0.500,1410.000,1.000,915.000,5.000,1.000
"07/02/06","14:01:50","AMMA06",67933.000,"cc",28292.660,6.00,2829.266,1,6,0.100,38076.000,0.200,23649.000,0.300,3846.000,0.500,1444.000,1.000,918.000,5.000,0
"07/02/06","14:01:56","AMMA06",67832.000,"cc",28295.043,6.00,2829.504,1,6,0.100,38251.000,0.200,23581.000,0.300,3750.000,0.500,1368.000,1.000,882.000,5.000,0
"07/02/06","14:02:02","AMMA06",68129.000,"cc",28399.617,6.00,2839.962,1,6,0.100,38357.000,0.200,23771.000,0.300,3700.000,0.500,1402.000,1.000,897.000,5.000,2.000
"07/02/06","14:02:08","AMMA06",67851.000,"cc",28277.344,6.00,2827.735,1,6,0.100,38186.000,0.200,23616.000,0.300,3723.000,0.500,1430.000,1.000,896.000,5.000,0
"07/02/06","14:02:14","AMMA06",68525.000,"cc",28343.074,6.00,2834.308,1,6,0.100,38657.000,0.200,23789.000,0.300,3786.000,0.500,1387.000,1.000,905.000,5.000,1.000
"07/02/06","14:02:20","AMMA06",68180.000,"cc",28371.912,6.00,2837.191,1,6,0.100,38573.000,0.200,23599.000,0.300,3717.000,0.500,1456.000,1.000,835.000,5.000,0
"07/02/06","14:02:26","AMMA06",67588.000,"cc",28313.686,6.00,2831.369,1,6,0.100,38065.000,0.200,23603.000,0.300,3587.000,0.500,1462.000,1.000,871.000,5.000,0
"07/02/06","14:02:32","AMMA06",68135.000,"cc",28299.139,6.00,2829.914,1,6,0.100,38389.000,0.200,23648.000,0.300,3744.000,0.500,1457.000,1.000,897.000,5.000,0
"07/02/06","14:02:38","AMMA06",67719.000,"cc",28279.217,6.00,2827.922,1,6,0.100,38409.000,0.200,23313.000,0.300,3700.000,0.500,1445.000,1.000,852.000,5.000,0
"07/02/06","14:02:44","AMMA06",67725.000,"cc",28306.885,6.00,2830.689,1,6,0.100,38230.000,0.200,23390.000,0.300,3752.000,0.500,1460.000,1.000,893.000,5.000,0
"07/02/06","14:02:50","AMMA06",67363.000,"cc",28324.940,6.00,2832.494,1,6,0.100,38116.000,0.200,23145.000,0.300,3759.000,0.500,1451.000,1.000,892.000,5.000,0
"07/02/06","14:02:56","AMMA06",68396.000,"cc",28340.824,6.00,2834.083,1,6,0.100,38726.000,0.200,23666.000,0.300,3663.000,0.500,1428.000,1.000,912.000,5.000,1.000
"07/02/06","14:03:02","AMMA06",67881.000,"cc",28352.389,6.00,2835.239,1,6,0.100,38385.000,0.200,23552.000,0.300,3641.000,0.500,1375.000,1.000,928.000,5.000,0
"07/02/06","14:03:08","AMMA06",67938.000,"cc",28295.336,6.00,2829.534,1,6,0.100,38302.000,0.200,23632.000,0.300,3672.000,0.500,1401.000,1.000,929.000,5.000,2.000
"07/02/06","14:03:14","AMMA06",67951.000,"cc",28298.191,6.00,2829.819,1,6,0.100,38405.000,0.200,23501.000,0.300,3773.000,0.500,1416.000,1.000,856.000,5.000,0
"07/02/06","14:03:20","AMMA06",68335.000,"cc",28285.053,6.00,2828.505,1,6,0.100,38357.000,0.200,23963.000,0.300,3725.000,0.500,1400.000,1.000,889.000,5.000,1.000
"07/02/06","14:03:26","AMMA06",68739.000,"cc",28338.201,6.00,2833.820,1,6,0.100,38840.000,0.200,23818.000,0.300,3744.000,0.500,1429.000,1.000,906.000,5.000,2.000
"07/02/06","14:03:32","AMMA06",67686.000,"cc",28335.516,6.00,2833.552,1,6,0.100,38214.000,0.200,23488.000,0.300,3761.000,0.500,1347.000,1.000,876.000,5.000,0
"07/02/06","14:03:38","AMMA06",67964.000,"cc",28310.717,6.00,2831.072,1,6,0.100,38127.000,0.200,23794.000,0.300,3810.000,0.500,1367.000,1.000,865.000,5.000,1.000
"07/02/06","14:03:44","AMMA06",68065.000,"cc",28353.543,6.00,2835.355,1,6,0.100,38451.000,0.200,23664.000,0.300,3677.000,0.500,1382.000,1.000,890.000,5.000,1.000
"07/02/06","14:03:50","AMMA06",67726.000,"cc",28315.736,6.00,2831.574,1,6,0.100,37997.000,0.200,23712.000,0.300,3785.000,0.500,1398.000,1.000,834.000,5.000,0
"07/02/06","14:03:56","AMMA06",68553.000,"cc",28280.811,6.00,2828.081,1,6,0.100,38672.000,0.200,23904.000,0.300,3742.000,0.500,1349.000,1.000,884.000,5.000,2.000
"07/02/06","14:04:02","AMMA06",68182.000,"cc",28286.840,6.00,2828.684,1,6,0.100,38418.000,0.200,23759.000,0.300,3726.000,0.500,1375.000,1.000,903.000,5.000,1.000
"07/02/06","14:04:08","AMMA06",68604.000,"cc",28365.697,6.00,2836.570,1,6,0.100,38620.000,0.200,23881.000,0.300,3782.000,0.500,1451.000,1.000,869.000,5.000,1.000
"07/02/06","14:04:14","AMMA06",68442.000,"cc",28338.643,6.00,2833.865,1,6,0.100,38479.000,0.200,23758.000,0.300,3845.000,0.500,1434.000,1.000,925.000,5.000,1.000
"07/02/06","14:04:20","AMMA06",67874.000,"cc",28336.022,6.00,2833.602,1,6,0.100,37983.000,0.200,23814.000,0.300,3718.000,0.500,1410.000,1.000,948.000,5.000,1.000
"07/02/06","14:04:26","AMMA06",68471.000,"cc",28278.717,6.00,2827.872,1,6,0.100,38508.000,0.200,23900.000,0.300,3781.000,0.500,1368.000,1.000,914.000,5.000,0
"07/02/06","14:04:32","AMMA06",67874.000,"cc",28335.229,6.00,2833.523,1,6,0.100,38139.000,0.200,23717.000,0.300,3698.000,0.500,1405.000,1.000,915.000,5.000,0
"07/02/06","14:04:38","AMMA06",68445.000,"cc",28309.873,6.00,2830.988,1,6,0.100,38636.000,0.200,23872.000,0.300,3703.000,0.500,1405.000,1.000,829.000,5.000,0
"07/02/06","14:04:44","AMMA06",68279.000,"cc",28369.404,6.00,2836.941,1,6,0.100,38090.000,0.200,24091.000,0.300,3739.000,0.500,1411.000,1.000,947.000,5.000,1.000
"07/02/06","14:04:50","AMMA06",68197.000,"cc",28317.477,6.00,2831.748,1,6,0.100,38125.000,0.200,24073.000,0.300,3669.000,0.500,1414.000,1.000,915.000,5.000,1.000
"07/02/06","14:04:56","AMMA06",67916.000,"cc",28307.207,6.00,2830.721,1,6,0.100,38096.000,0.200,23797.000,0.300,3736.000,0.500,1405.000,1.000,882.000,5.000,0
"07/02/06","14:05:02","AMMA06",68588.000,"cc",28282.066,6.00,2828.207,1,6,0.100,38313.000,0.200,24209.000,0.300,3794.000,0.500,1375.000,1.000,896.000,5.000,1.000
"07/02/06","14:05:08","AMMA06",68259.000,"cc",28349.295,6.00,2834.930,1,6,0.100,38056.000,0.200,24112.000,0.300,3729.000,0.500,1421.000,1.000,940.000,5.000,1.000
"07/02/06","14:05:14","AMMA06",68252.000,"cc",28327.090,6.00,2832.709,1,6,0.100,38011.000,0.200,23996.000,0.300,3944.000,0.500,1445.000,1.000,854.000,5.000,2.000
"07/02/06","14:05:20","AMMA06",68317.000,"cc",28320.713,6.00,2832.072,1,6,0.100,38049.000,0.200,24225.000,0.300,3762.000,0.500,1367.000,1.000,914.000,5.000,0
"07/02/06","14:05:26","AMMA06",68299.000,"cc",28326.420,6.00,2832.642,1,6,0.100,37785.000,0.200,24261.000,0.300,3851.000,0.500,1456.000,1.000,946.000,5.000,0
"07/02/06","14:05:32","AMMA06",68070.000,"cc",28290.424,6.00,2829.043,1,6,0.100,37803.000,0.200,24154.000,0.300,3834.000,0.500,1401.000,1.000,877.000,5.000,1.000
"07/02/06","14:05:38","AMMA06",69028.000,"cc",28256.734,6.00,2825.674,1,6,0.100,38432.000,0.200,24500.000,0.300,3840.000,0.500,1402.000,1.000,853.000,5.000,1.000
"07/02/06","14:05:44","AMMA06",68394.000,"cc",28296.139,6.00,2829.614,1,6,0.100,37884.000,0.200,24470.000,0.300,3718.000,0.500,1403.000,1.000,919.000,5.000,0
"07/02/06","14:05:50","AMMA06",69221.000,"cc",28289.951,6.00,2828.995,1,6,0.100,38533.000,0.200,24511.000,0.300,3874.000,0.500,1405.000,1.000,898.000,5.000,0
"07/02/06","14:05:56","AMMA06",68600.000,"cc",28357.039,6.00,2835.704,1,6,0.100,38184.000,0.200,24293.000,0.300,3763.000,0.500,1441.000,1.000,919.000,5.000,0
"07/02/06","14:06:02","AMMA06",68654.000,"cc",28296.484,6.00,2829.649,1,6,0.100,38141.000,0.200,24259.000,0.300,3885.000,0.500,1414.000,1.000,954.000,5.000,1.000
"07/02/06","14:06:08","AMMA06",68343.000,"cc",28320.186,6.00,2832.019,1,6,0.100,38057.000,0.200,24223.000,0.300,3764.000,0.500,1420.000,1.000,879.000,5.000,0
"07/02/06","14:06:14","AMMA06",68670.000,"cc",28312.041,6.00,2831.204,1,6,0.100,38373.000,0.200,24159.000,0.300,3781.000,0.500,1446.000,1.000,909.000,5.000,2.000
"07/02/06","14:06:20","AMMA06",68644.000,"cc",28354.316,6.00,2835.432,1,6,0.100,38279.000,0.200,24184.000,0.300,3929.000,0.500,1369.000,1.000,883.000,5.000,0
"07/02/06","14:06:26","AMMA06",68940.000,"cc",28315.059,6.00,2831.506,1,6,0.100,38394.000,0.200,24321.000,0.300,3919.000,0.500,1377.000,1.000,929.000,5.000,0
"07/02/06","14:06:32","AMMA06",68880.000,"cc",28318.998,6.00,2831.900,1,6,0.100,38456.000,0.200,24278.000,0.300,3894.000,0.500,1377.000,1.000,874.000,5.000,1.000
"07/02/06","14:06:38","AMMA06",68652.000,"cc",28320.147,6.00,2832.015,1,6,0.100,38335.000,0.200,24180.000,0.300,3816.000,0.500,1404.000,1.000,917.000,5.000,0
"07/02/06","14:06:44","AMMA06",68368.000,"cc",28330.162,6.00,2833.016,1,6,0.100,38402.000,0.200,23916.000,0.300,3767.000,0.500,1364.000,1.000,919.000,5.000,0
"07/02/06","14:06:50","AMMA06",68837.000,"cc",28320.576,6.00,2832.058,1,6,0.100,38556.000,0.200,24124.000,0.300,3823.000,0.500,1431.000,1.000,900.000,5.000,3.000
"07/02/06","14:06:56","AMMA06",68441.000,"cc",28356.201,6.00,2835.620,1,6,0.100,38733.000,0.200,23692.000,0.300,3662.000,0.500,1446.000,1.000,908.000,5.000,0
"07/02/06","14:07:02","AMMA06",68454.000,"cc",28296.117,6.00,2829.612,1,6,0.100,38225.000,0.200,24165.000,0.300,3754.000,0.500,1369.000,1.000,940.000,5.000,1.000
"07/02/06","14:07:08","AMMA06",68567.000,"cc",28243.701,6.00,2824.370,1,6,0.100,38442.000,0.200,24093.000,0.300,3780.000,0.500,1378.000,1.000,874.000,5.000,0
"07/02/06","14:07:14","AMMA06",68591.000,"cc",28317.086,6.00,2831.709,1,6,0.100,38708.000,0.200,23809.000,0.300,3721.000,0.500,1448.000,1.000,904.000,5.000,1.000
"07/02/06","14:07:20","AMMA06",68453.000,"cc",28352.998,6.00,2835.300,1,6,0.100,38575.000,0.200,23913.000,0.300,3664.000,0.500,1400.000,1.000,901.000,5.000,0
"07/02/06","14:07:26","AMMA06",68119.000,"cc",28333.895,6.00,2833.390,1,6,0.100,38520.000,0.200,23624.000,0.300,3703.000,0.500,1401.000,1.000,871.000,5.000,0
"07/02/06","14:07:32","AMMA06",68500.000,"cc",28291.842,6.00,2829.184,1,6,0.100,38623.000,0.200,23770.000,0.300,3730.000,0.500,1471.000,1.000,906.000,5.000,0
"07/02/06","14:07:38","AMMA06",68936.000,"cc",28279.559,6.00,2827.956,1,6,0.100,39077.000,0.200,23667.000,0.300,3905.000,0.500,1395.000,1.000,892.000,5.000,0
"07/02/06","14:07:44","AMMA06",68363.000,"cc",28373.852,6.00,2837.385,1,6,0.100,38545.000,0.200,23905.000,0.300,3609.000,0.500,1435.000,1.000,867.000,5.000,2.000
"07/02/06","14:07:50","AMMA06",68660.000,"cc",28269.320,6.00,2826.932,1,6,0.100,38762.000,0.200,23851.000,0.300,3775.000,0.500,1411.000,1.000,861.000,5.000,0
"07/02/06","14:07:56","AMMA06",68564.000,"cc",28314.252,6.00,2831.425,1,6,0.100,38681.000,0.200,23865.000,0.300,3660.000,0.500,1437.000,1.000,921.000,5.000,0
"07/02/06","14:08:02","AMMA06",68889.000,"cc",28319.805,6.00,2831.981,1,6,0.100,39163.000,0.200,23720.000,0.300,3735.000,0.500,1412.000,1.000,858.000,5.000,1.000
"07/02/06","14:08:08","AMMA06",68798.000,"cc",28312.303,6.00,2831.231,1,6,0.100,38930.000,0.200,23811.000,0.300,3751.000,0.500,1405.000,1.000,901.000,5.000,0
"07/02/06","14:08:14","AMMA06",69043.000,"cc",28274.861,6.00,2827.486,1,6,0.100,39118.000,0.200,23858.000,0.300,3728.000,0.500,1411.000,1.000,926.000,5.000,2.000
"07/02/06","14:08:20","AMMA06",69351.000,"cc",28357.363,6.00,2835.737,1,6,0.100,39414.000,0.200,23839.000,0.300,3793.000,0.500,1445.000,1.000,860.000,5.000,0
"07/02/06","14:08:26","AMMA06",69188.000,"cc",28337.068,6.00,2833.707,1,6,0.100,39184.000,0.200,24018.000,0.300,3719.000,0.500,1416.000,1.000,849.000,5.000,2.000
"07/02/06","14:08:32","AMMA06",69015.000,"cc",28281.266,6.00,2828.127,1,6,0.100,38991.000,0.200,24040.000,0.300,3735.000,0.500,1355.000,1.000,894.000,5.000,0
"07/02/06","14:08:38","AMMA06",68634.000,"cc",28308.445,6.00,2830.845,1,6,0.100,38876.000,0.200,23737.000,0.300,3668.000,0.500,1471.000,1.000,882.000,5.000,0
"07/02/06","14:08:44","AMMA06",68721.000,"cc",28308.074,6.00,2830.808,1,6,0.100,38977.000,0.200,23629.000,0.300,3777.000,0.500,1449.000,1.000,889.000,5.000,0
"07/02/06","14:08:50","AMMA06",69045.000,"cc",28304.389,6.00,2830.439,1,6,0.100,38939.000,0.200,24049.000,0.300,3647.000,0.500,1523.000,1.000,886.000,5.000,1.000
"07/02/06","14:08:56","AMMA06",68737.000,"cc",28331.578,6.00,2833.158,1,6,0.100,38814.000,0.200,23863.000,0.300,3728.000,0.500,1450.000,1.000,882.000,5.000,0
"07/02/06","14:09:02","AMMA06",68328.000,"cc",28338.490,6.00,2833.849,1,6,0.100,38825.000,0.200,23525.000,0.300,3688.000,0.500,1364.000,1.000,925.000,5.000,1.000
"07/02/06","14:09:08","AMMA06",69464.000,"cc",28262.654,6.00,2826.266,1,6,0.100,39294.000,0.200,24104.000,0.300,3812.000,0.500,1392.000,1.000,862.000,5.000,0
"07/02/06","14:09:14","AMMA06",68996.000,"cc",28323.365,6.00,2832.337,1,6,0.100,39028.000,0.200,24042.000,0.300,3639.000,0.500,1420.000,1.000,867.000,5.000,0
"07/02/06","14:09:20","AMMA06",69299.000,"cc",28336.912,6.00,2833.691,1,6,0.100,39182.000,0.200,23951.000,0.300,3816.000,0.500,1431.000,1.000,917.000,5.000,2.000
"07/02/06","14:09:26","AMMA06",68938.000,"cc",28272.484,6.00,2827.249,1,6,0.100,39069.000,0.200,23906.000,0.300,3765.000,0.500,1344.000,1.000,853.000,5.000,1.000
"07/02/06","14:09:32","AMMA06",68779.000,"cc",28358.299,6.00,2835.830,1,6,0.100,38896.000,0.200,23935.000,0.300,3641.000,0.500,1414.000,1.000,891.000,5.000,2.000
"07/02/06","14:09:38","AMMA06",68430.000,"cc",28339.000,6.00,2833.900,1,6,0.100,38743.000,0.200,23736.000,0.300,3663.000,0.500,1414.000,1.000,874.000,5.000,0
"07/02/06","14:09:44","AMMA06",68628.000,"cc",28301.195,6.00,2830.120,1,6,0.100,38943.000,0.200,23756.000,0.300,3609.000,0.500,1399.000,1.000,921.000,5.000,0
"07/02/06","14:09:50","AMMA06",68882.000,"cc",28337.236,6.00,2833.724,1,6,0.100,39155.000,0.200,23761.000,0.300,3761.000,0.500,1305.000,1.000,899.000,5.000,1.000
"07/02/06","14:09:56","AMMA06",69095.000,"cc",28316.023,6.00,2831.603,1,6,0.100,38985.000,0.200,24014.000,0.300,3784.000,0.500,1409.000,1.000,903.000,5.000,0
"07/02/06","14:10:02","AMMA06",68929.000,"cc",28330.023,6.00,2833.002,1,6,0.100,38896.000,0.200,24060.000,0.300,3623.000,0.500,1455.000,1.000,895.000,5.000,0
"07/02/06","14:10:08","AMMA06",69087.000,"cc",28325.348,6.00,2832.535,1,6,0.100,39020.000,0.200,24081.000,0.300,3742.000,0.500,1379.000,1.000,865.000,5.000,0
"07/02/06","14:10:14","AMMA06",68445.000,"cc",28343.365,6.00,2834.337,1,6,0.100,38840.000,0.200,23709.000,0.300,3673.000,0.500,1368.000,1.000,855.000,5.000,0
"07/02/06","14:10:20","AMMA06",68925.000,"cc",28295.213,6.00,2829.522,1,6,0.100,38970.000,0.200,23946.000,0.300,3716.000,0.500,1384.000,1.000,909.000,5.000,0
"07/02/06","14:10:26","AMMA06",69022.000,"cc",28296.951,6.00,2829.695,1,6,0.100,38996.000,0.200,23893.000,0.300,3795.000,0.500,1444.000,1.000,894.000,5.000,0
"07/02/06","14:10:32","AMMA06",69103.000,"cc",28326.639,6.00,2832.664,1,6,0.100,38879.000,0.200,24086.000,0.300,3851.000,0.500,1383.000,1.000,904.000,5.000,0
"07/02/06","14:10:38","AMMA06",68631.000,"cc",28317.123,6.00,2831.712,1,6,0.100,38782.000,0.200,23812.000,0.300,3736.000,0.500,1401.000,1.000,900.000,5.000,0
"07/02/06","14:10:44","AMMA06",68950.000,"cc",28314.859,6.00,2831.486,1,6,0.100,39061.000,0.200,23724.000,0.300,3811.000,0.500,1447.000,1.000,906.000,5.000,1.000
"07/02/06","14:10:50","AMMA06",69431.000,"cc",28316.430,6.00,2831.643,1,6,0.100,39131.000,0.200,24204.000,0.300,3747.000,0.500,1419.000,1.000,929.000,5.000,1.000
"07/02/06","14:10:56","AMMA06",68628.000,"cc",28319.066,6.00,2831.907,1,6,0.100,38666.000,0.200,23926.000,0.300,3678.000,0.500,1433.000,1.000,925.000,5.000,0
"07/02/06","14:11:02","AMMA06",68848.000,"cc",28285.414,6.00,2828.542,1,6,0.100,38802.000,0.200,23996.000,0.300,3710.000,0.500,1438.000,1.000,901.000,5.000,1.000
"07/02/06","14:11:08","AMMA06",68856.000,"cc",28318.404,6.00,2831.841,1,6,0.100,38824.000,0.200,23982.000,0.300,3786.000,0.500,1392.000,1.000,872.000,5.000,0
"07/02/06","14:11:14","AMMA06",69601.000,"cc",28330.229,6.00,2833.023,1,6,0.100,39251.000,0.200,24113.000,0.300,3875.000,0.500,1427.000,1.000,935.000,5.000,0
"07/02/06","14:11:20","AMMA06",68980.000,"cc",28319.066,6.00,2831.907,1,6,0.100,39105.000,0.200,23800.000,0.300,3793.000,0.500,1373.000,1.000,909.000,5.000,0
"07/02/06","14:11:26","AMMA06",68913.000,"cc",28331.967,6.00,2833.197,1,6,0.100,38798.000,0.200,24064.000,0.300,3789.000,0.500,1332.000,1.000,930.000,5.000,0
"07/02/06","14:11:32","AMMA06",69025.000,"cc",28277.027,6.00,2827.703,1,6,0.100,38691.000,0.200,24328.000,0.300,3691.000,0.500,1385.000,1.000,930.000,5.000,0
"07/02/06","14:11:38","AMMA06",68686.000,"cc",28385.623,6.00,2838.563,1,6,0.100,38573.000,0.200,24026.000,0.300,3766.000,0.500,1433.000,1.000,888.000,5.000,0
"07/02/06","14:11:44","AMMA06",68971.000,"cc",28339.412,6.00,2833.941,1,6,0.100,38778.000,0.200,24071.000,0.300,3753.000,0.500,1417.000,1.000,951.000,5.000,1.000
"07/02/06","14:11:50","AMMA06",69252.000,"cc",28263.453,6.00,2826.346,1,6,0.100,38689.000,0.200,24474.000,0.300,3780.000,0.500,1415.000,1.000,893.000,5.000,1.000
"07/02/06","14:11:56","AMMA06",69043.000,"cc",28328.178,6.00,2832.818,1,6,0.100,39209.000,0.200,23792.000,0.300,3720.000,0.500,1399.000,1.000,922.000,5.000,1.000
"07/02/06","14:12:02","AMMA06",69213.000,"cc",28319.414,6.00,2831.942,1,6,0.100,38939.000,0.200,24041.000,0.300,3816.000,0.500,1499.000,1.000,918.000,5.000,0
"07/02/06","14:12:08","AMMA06",69010.000,"cc",28273.072,6.00,2827.307,1,6,0.100,38575.000,0.200,24382.000,0.300,3727.000,0.500,1405.000,1.000,921.000,5.000,0
"07/02/06","14:12:14","AMMA06",69299.000,"cc",28321.549,6.00,2832.155,1,6,0.100,39282.000,0.200,24040.000,0.300,3730.000,0.500,1382.000,1.000,864.000,5.000,1.000
"07/02/06","14:12:20","AMMA06",69126.000,"cc",28349.102,6.00,2834.910,1,6,0.100,38785.000,0.200,24239.000,0.300,3844.000,0.500,1388.000,1.000,870.000,5.000,0
"07/02/06","14:12:26","AMMA06",69341.000,"cc",28293.133,6.00,2829.314,1,6,0.100,38891.000,0.200,24273.000,0.300,3895.000,0.500,1417.000,1.000,864.000,5.000,1.000
"07/02/06","14:12:32","AMMA06",69300.000,"cc",28319.881,6.00,2831.988,1,6,0.100,38990.000,0.200,24269.000,0.300,3766.000,0.500,1432.000,1.000,843.000,5.000,0
"07/02/06","14:12:38","AMMA06",69702.000,"cc",28296.947,6.00,2829.695,1,6,0.100,39411.000,0.200,24240.000,0.300,3768.000,0.500,1396.000,1.000,887.000,5.000,0
"07/02/06","14:12:44","AMMA06",69303.000,"cc",28324.107,6.00,2832.411,1,6,0.100,38793.000,0.200,24315.000,0.300,3809.000,0.500,1434.000,1.000,950.000,5.000,2.000
"07/02/06","14:12:50","AMMA06",68932.000,"cc",28328.229,6.00,2832.823,1,6,0.100,38790.000,0.200,24142.000,0.300,3764.000,0.500,1341.000,1.000,895.000,5.000,0
"07/02/06","14:12:56","AMMA06",68854.000,"cc",28327.256,6.00,2832.726,1,6,0.100,38798.000,0.200,23967.000,0.300,3771.000,0.500,1412.000,1.000,906.000,5.000,0
"07/02/06","14:13:02","AMMA06",68814.000,"cc",28370.697,6.00,2837.070,1,6,0.100,38658.000,0.200,24055.000,0.300,3810.000,0.500,1431.000,1.000,859.000,5.000,1.000
"07/02/06","14:13:08","AMMA06",69221.000,"cc",28282.533,6.00,2828.253,1,6,0.100,38751.000,0.200,24324.000,0.300,3899.000,0.500,1332.000,1.000,915.000,5.000,0
"07/02/06","14:13:14","AMMA06",69160.000,"cc",28272.447,6.00,2827.245,1,6,0.100,38788.000,0.200,24288.000,0.300,3788.000,0.500,1407.000,1.000,889.000,5.000,0
"07/02/06","14:13:20","AMMA06",69353.000,"cc",28355.154,6.00,2835.516,1,6,0.100,38780.000,0.200,24217.000,0.300,3892.000,0.500,1455.000,1.000,1009.000,5.000,0
"07/02/06","14:13:26","AMMA06",69502.000,"cc",28293.797,6.00,2829.380,1,6,0.100,38807.000,0.200,24471.000,0.300,3860.000,0.500,1394.000,1.000,970.000,5.000,0
"07/02/06","14:13:32","AMMA06",69454.000,"cc",28295.768,6.00,2829.577,1,6,0.100,38972.000,0.200,24212.000,0.300,3968.000,0.500,1375.000,1.000,925.000,5.000,2.000
"07/02/06","14:13:38","AMMA06",69566.000,"cc",28306.244,6.00,2830.625,1,6,0.100,38802.000,0.200,24514.000,0.300,3869.000,0.500,1470.000,1.000,911.000,5.000,0
"07/02/06","14:13:44","AMMA06",70087.000,"cc",28340.707,6.00,2834.071,1,6,0.100,39303.000,0.200,24604.000,0.300,3852.000,0.500,1368.000,1.000,960.000,5.000,0
"07/02/06","14:13:50","AMMA06",69532.000,"cc",28311.443,6.00,2831.145,1,6,0.100,38762.000,0.200,24618.000,0.300,3941.000,0.500,1355.000,1.000,852.000,5.000,4.000
"07/02/06","14:13:56","AMMA06",69554.000,"cc",28332.586,6.00,2833.259,1,6,0.100,38899.000,0.200,24439.000,0.300,3914.000,0.500,1397.000,1.000,903.000,5.000,2.000
"07/02/06","14:14:02","AMMA06",69770.000,"cc",28352.397,6.00,2835.240,1,6,0.100,39112.000,0.200,24409.000,0.300,3908.000,0.500,1455.000,1.000,886.000,5.000,0